Location: Home
(42.5358°N, 72.7383°W)
Time: 21:25:52
(UTC-05:00)

Vanguard 2 - Pass Details

Date: 03 December 2021
Orbit: 553 x 2936 km, 32.9° (Epoch: 20 January)

Event Time Altitude Azimuth Distance (km) Brightness Sun altitude
Rises 16:56:21 0° 263° (W) 3,660 12.7 -7.1°
Reaches altitude 10° 16:58:47 10° 254° (WSW) 2,960 12.2 -7.5°
Maximum altitude 17:05:26 35° 191° (S) 2,238 10.2 -8.6°
Drops below altitude 10° 17:15:46 10° 132° (SE) 4,623 11.2 -10.4°
Sets 17:20:39 0° 125° (SE) 6,004 11.7 -11.3°
